Flag for Eritrea Weather past 2 weeks in Keren, Eritrea

Now
95 °F

Passing clouds.


Feels Like: 110 °F
Forecast: 67 / 87 °F
Wind: 14 mph from Southwest

Location: Gizan

Current Time: May 3, 2015 at 4:09:13 PM

Latest Report: May 3, 2015 at 3:00 PM


Visibility: N/A

Pressure: 29.71 "Hg

Humidity: 56%

Dew point: 77 °F

Location of KerenLocation

Historic Weather in Keren — Graph

°F

Keren temperature yesterday

Maximum temperature yesterday: 95 °F (at 9:00 AM)
Minimum temperature yesterday: 82 °F (at 4:00 AM)
Average temperature yesterday: 90 °F

Past Weeks' High & Low Weather Summary

 TemperatureHumidityPressure
High99 °F (Apr 24, 12:00 PM)84% (Apr 25, 4:00 AM)29.92 "Hg (Apr 25, 4:00 AM)
Low81 °F (Apr 19, 4:00 AM)37% (Apr 24, 12:00 PM)29.71 "Hg (Apr 30, 4:00 PM)
Average89 °F64%29.81 "Hg
* Reported Apr 18 3:00 PM — May 3 3:00 PM, Keren, Weather by CustomWeather, © 2015

Note: Actual official high and low records may vary slightly from our data, if they occured in-between our weather recording intervals... More about our weather records

Advertising

Keren weather history for previous 24 hours

 ConditionsComfort  
Time TempWeatherWind HumidityBarometerVisibility
3:00 PM
Sun, May 3
95 °FPassing clouds.14 mph56%29.71 "HgN/A
2:00 PM95 °FPassing clouds.21 mph53%29.74 "HgN/A
1:00 PM95 °FPassing clouds.14 mph47%29.77 "HgN/A
12:00 PM93 °FPassing clouds.12 mph49%29.80 "HgN/A
11:00 AM93 °FSunny.12 mph47%29.80 "Hg10 mi
10:00 AM93 °FPassing clouds.10 mph47%29.83 "HgN/A
9:00 AM93 °FScattered clouds.7 mph47%29.83 "HgN/A
8:00 AM91 °FScattered clouds.7 mph49%29.80 "HgN/A
7:00 AM90 °FSunny.No wind52%29.80 "Hg10 mi
6:00 AM88 °FSunny.No wind55%29.77 "Hg10 mi
5:00 AM86 °FClear.No wind59%29.77 "Hg10 mi
4:00 AM86 °FClear.No wind59%29.74 "Hg10 mi
3:00 AM86 °FClear.No wind59%29.74 "Hg10 mi
2:00 AM88 °FClear.No wind59%29.77 "Hg10 mi
1:00 AM88 °FClear.No wind59%29.77 "Hg10 mi
12:00 AM88 °FClear.No wind59%29.80 "Hg10 mi
11:00 PM
Sat, May 2
88 °FClear.No wind62%29.80 "Hg10 mi
10:00 PM90 °FClear.3 mph59%29.80 "Hg10 mi
9:00 PM90 °FClear.5 mph59%29.77 "Hg10 mi
8:00 PM90 °FClear.3 mph59%29.74 "Hg10 mi
7:00 PM91 °FClear.5 mph56%29.74 "Hg10 mi
6:00 PM91 °FPassing clouds.5 mph56%29.77 "HgN/A
5:00 PM93 °FPassing clouds.12 mph56%29.74 "HgN/A
4:00 PM91 °FScattered clouds.12 mph63%29.74 "HgN/A
Weather by CustomWeather, © 2015

See weather overviewHow to use our weather pages